Regional Weather Roundup
Issued by NWS Little Rock, AR

Home | Current Version | Previous Version | Graphics & Text | Print | Product List | Glossary On
Versions: 1 2 3 4 5 6 7 8 9 10 11 12 13 14 15 16 17 18 19 20 21 22 23 24 25 26 27 28 29 30 31 32 33 34 35 36 37 38 39
000
ASUS44 KLZK 250012
RWRLZK

WEATHER ROUNDUP FOR ARKANSAS
NATIONAL WEATHER SERVICE LITTLE ROCK AR
600 PM CST FRI FEB 24 2017

NOTE: "FAIR" INDICATES FEW OR NO CLOUDS BELOW 12,000 FEET WITH NO
SIGNIFICANT WEATHER AND/OR OBSTRUCTIONS TO VISIBILITY.

ARZ001-003-010-029-250100-
NORTHWEST ARKANSAS

CITY           SKY/WX    TMP DP  RH WIND       PRES   REMARKS
FAYETTEVILLE   CLEAR     46  27  47 NW13G23   29.87R
6HR MIN TEMP:  44; 6HR MAX TEMP:  53;

FORT SMITH     CLEAR     54  25  32 NW14G24   29.88R
6HR MIN TEMP:  52; 6HR MAX TEMP:  59;

HARRISON       CLEAR     48  26  42 NW12G21   29.81R
6HR MIN TEMP:  48; 6HR MAX TEMP:  54;

BENTONVILLE    CLEAR     45  25  45 NW16G24   29.89R
6HR MIN TEMP:  45; 6HR MAX TEMP:  52;

ROGERS         CLEAR     43  26  51 NW21G28   29.88R
6HR MIN TEMP:  43; 6HR MAX TEMP:  51;

SILOAM SPGS    CLEAR     45  23  42 NW17G23   29.90R
6HR MIN TEMP:  45; 6HR MAX TEMP:  52;

HIGHFILL       CLEAR     44  25  47 NW15G23   29.88R
6HR MIN TEMP:  44; 6HR MAX TEMP:  53; 6HR PCP: TRACE;

SPRINGDALE     CLEAR     46  27  46 NW17G25   29.89R
$$

ARZ004-005-016-250100-
NORTH CENTRAL ARKANSAS

CITY           SKY/WX    TMP DP  RH WIND       PRES   REMARKS
BATESVILLE     PTCLDY    59  37  44 NW8       29.75R
6HR MIN TEMP:  59; 6HR MAX TEMP:  68;

FLIPPIN        CLEAR     54  27  35 W9        29.77R
6HR MIN TEMP:  54; 6HR MAX TEMP:  57;

MTN HOME       CLEAR     51  30  44 VRB6      29.77R
6HR MIN TEMP:  51; 6HR MAX TEMP:  56;

$$

ARZ040-041-250100-
WEST CENTRAL ARKANSAS

CITY           SKY/WX    TMP DP  RH WIND       PRES   REMARKS
MENA           CLEAR     55  32  41 NW10      29.86R
MOUNT IDA      CLEAR     57  34  41 NW8       29.81R
6HR MIN TEMP:  57; 6HR MAX TEMP:  65;

$$

ARZ009-017-025-026-028-250100-
NORTHEAST ARKANSAS

CITY           SKY/WX    TMP DP  RH WIND       PRES   REMARKS
CORNING        FAIR      55  41  58 W15       29.73R
JONESBORO      CLOUDY    60  40  47 NW9       29.72R
6HR MIN TEMP:  60; 6HR MAX TEMP:  67;

NEWPORT        PTCLDY    57  46  66 MISG      29.73R
6HR MIN TEMP:  57; 6HR MAX TEMP:  67;

WALNUT RIDGE   CLEAR     57  36  44 W17       29.74R
6HR MIN TEMP:  57; 6HR MAX TEMP:  66;

BLYTHEVILLE    CLOUDY    62  52  69 NW10      29.70S
6HR MIN TEMP:  62; 6HR MAX TEMP:  67;

$$

ARZ022-023-033-042-044-250100-
CENTRAL ARKANSAS

CITY           SKY/WX    TMP DP  RH WIND       PRES   REMARKS
LITTLE ROCK    PTCLDY    60  38  43 W14       29.77R
6HR MIN TEMP:  60; 6HR MAX TEMP:  70;

N LITTLE ROCK    N/A     58  42  54 W6        29.78R
6HR MIN TEMP:  58; 6HR MAX TEMP:  66;

JACKSONVILLE   CLEAR     60  44  54 W13       29.76R
6HR MIN TEMP:  60; 6HR MAX TEMP:  68;

SEARCY         CLEAR     60  46  59 W8        29.76R
6HR MIN TEMP:  60; 6HR MAX TEMP:  68;

HOT SPRINGS    CLEAR     59  35  40 NW10G18   29.80R
6HR MIN TEMP:  59; 6HR MAX TEMP:  67;

RUSSELLVILLE   CLEAR     56  32  40 W14       29.81R
6HR MIN TEMP:  56; 6HR MAX TEMP:  61;

CLINTON        FAIR      59  32  36 NW5       29.77R
$$

ARZ036-250100-
EAST ARKANSAS

CITY           SKY/WX    TMP DP  RH WIND       PRES   REMARKS
WEST MEMPHIS   CLOUDY    66  56  70 SW5       29.69R
6HR MIN TEMP:  64; 6HR MAX TEMP:  68;

$$

ARZ050-053-066-070-073-250100-
SOUTHWEST ARKANSAS

CITY           SKY/WX    TMP DP  RH WIND       PRES   REMARKS
CAMDEN         CLEAR     66  48  52 W3        29.77R
TEXARKANA      CLEAR     62  40  44 NW10      29.82R
6HR MIN TEMP:  62; 6HR MAX TEMP:  67;

EL DORADO      CLEAR     64  50  60 W5        29.78R
6HR MIN TEMP:  64; 6HR MAX TEMP:  75;

DE QUEEN       CLEAR     60  33  36 NW8       29.83R
6HR MIN TEMP:  60; 6HR MAX TEMP:  67;

$$

ARZ056-057-069-250100-
SOUTHEAST ARKANSAS

CITY           SKY/WX    TMP DP  RH WIND       PRES   REMARKS
PINE BLUFF     MOCLDY    66  48  52 NW10      29.75R
6HR MIN TEMP:  66; 6HR MAX TEMP:  72;

STUTTGART      PTCLDY    63  36  36 W16       29.75R
6HR MIN TEMP:  63; 6HR MAX TEMP:  70;

MONTICELLO     PTCLDY    71  53  52 W8        29.73R
6HR MIN TEMP:  71; 6HR MAX TEMP:  77;


$$






USA.gov is the U.S. government's official web portal to all federal, state and local government web resources and services.